Location: Unspecified
(0.0000°N, 0.0000°E)
Time: 10:34:39
(UTC+00:00)

Vanguard 1 - Pass Details

Date: 14 December 2017
Orbit: 650 x 3833 km, 34.3° (Epoch: 22 June)

Event Time Altitude Azimuth Distance (km) Brightness Sun altitude
Rises 16:26:04 0° 319° (NW) 4,128 13.5 20.3°
Reaches altitude 10° 16:29:43 10° 330° (NNW) 2,755 12.5 19.5°
Maximum altitude 16:34:59 30° 30° (NNE) 1,336 10.5 18.3°
Drops below altitude 10° 16:39:00 10° 93° (E) 2,080 11.3 17.4°
Sets 16:41:21 0° 105° (ESE) 2,952 12.1 16.8°
